| time (UTC) | temp C | wind direction | speed KPH | gust KPH | rain 1hr cm | rain 24hr cm | rain mn cm | humidity % | barometer mb |
| 20260509093505 | 11 | 253 | 22.5 | 35.4 | 0.00 | 0.00 | 0.00 | 46 | 1008.3 |
| 20260509092505 | 11 | 273 | 22.5 | 32.2 | 0.00 | 0.00 | 0.00 | 46 | 1008.1 |
| 20260509092004 | 11 | 276 | 20.9 | 32.2 | 0.00 | 0.00 | 0.00 | 48 | 1008.0 |
| 20260509091504 | 11 | 256 | 22.5 | 32.2 | 0.00 | 0.00 | 0.00 | 50 | 1008.0 |
| 20260509090005 | 11 | 265 | 20.9 | 32.2 | 0.00 | 0.00 | 0.00 | 52 | 1007.8 |
| 20260509085504 | 11 | 263 | 22.5 | 32.2 | 0.00 | 0.00 | 0.00 | 52 | 1007.7 |
| 20260509084504 | 11 | 267 | 22.5 | 32.2 | 0.00 | 0.00 | 0.00 | 53 | 1007.6 |
| 20260509083505 | 11 | 247 | 22.5 | 35.4 | 0.00 | 0.00 | 0.00 | 52 | 1007.5 |
| 20260509083004 | 12 | 262 | 20.9 | 32.2 | 0.00 | 0.00 | 0.00 | 52 | 1007.5 |
| 20260509082505 | 12 | 262 | 20.9 | 32.2 | 0.00 | 0.00 | 0.00 | 52 | 1007.4 |
| 20260509082004 | 12 | 254 | 22.5 | 32.2 | 0.00 | 0.00 | 0.00 | 52 | 1007.4 |
| 20260509081505 | 12 | 262 | 19.3 | 32.2 | 0.00 | 0.00 | 0.00 | 51 | 1007.4 |
| 20260509080005 | 12 | 266 | 25.7 | 32.2 | 0.00 | 0.00 | 0.00 | 50 | 1007.6 |
| 20260509075505 | 12 | 249 | 24.1 | 32.2 | 0.00 | 0.00 | 0.00 | 50 | 1007.6 |
| 20260509075005 | 12 | 261 | 22.5 | 27.4 | 0.00 | 0.00 | 0.00 | 50 | 1007.6 |
| 20260509074504 | 12 | 250 | 19.3 | 27.4 | 0.00 | 0.00 | 0.00 | 50 | 1007.6 |
| 20260509073505 | 12 | 263 | 12.9 | 24.1 | 0.00 | 0.00 | 0.00 | 49 | 1007.6 |
| 20260509073004 | 12 | 262 | 12.9 | 19.3 | 0.00 | 0.00 | 0.00 | 49 | 1007.6 |
| 20260509072504 | 12 | 257 | 16.1 | 19.3 | 0.00 | 0.00 | 0.00 | 48 | 1007.7 |
| 20260509072004 | 13 | 255 | 14.5 | 20.9 | 0.00 | 0.00 | 0.00 | 48 | 1007.7 |
| 20260509071505 | 13 | 263 | 14.5 | 22.5 | 0.00 | 0.00 | 0.00 | 47 | 1007.6 |
| 20260509071004 | 13 | 256 | 14.5 | 22.5 | 0.00 | 0.00 | 0.00 | 47 | 1007.6 |
| 20260509070005 | 13 | 239 | 12.9 | 19.3 | 0.00 | 0.00 | 0.00 | 47 | 1007.4 |
| 20260509065505 | 13 | 266 | 14.5 | 19.3 | 0.00 | 0.00 | 0.00 | 47 | 1007.4 |
| 20260509065004 | 13 | 249 | 14.5 | 19.3 | 0.00 | 0.00 | 0.00 | 47 | 1007.4 |
| 20260509064504 | 13 | 254 | 9.7 | 19.3 | 0.00 | 0.00 | 0.00 | 49 | 1007.4 |
| 20260509064004 | 13 | 241 | 8.0 | 12.9 | 0.00 | 0.00 | 0.00 | 50 | 1007.4 |
| 20260509063504 | 13 | 236 | 8.0 | 14.5 | 0.00 | 0.00 | 0.00 | 50 | 1007.3 |
| 20260509063005 | 13 | 230 | 8.0 | 14.5 | 0.00 | 0.00 | 0.00 | 50 | 1007.3 |
| 20260509062505 | 13 | 213 | 3.2 | 8.0 | 0.00 | 0.00 | 0.00 | 50 | 1007.2 |
| 20260509062005 | 13 | 211 | 4.8 | 9.7 | 0.00 | 0.00 | 0.00 | 49 | 1007.2 |
| 20260509060005 | 13 | 233 | 4.8 | 16.1 | 0.00 | 0.00 | 0.00 | 46 | 1007.2 |
| 20260509055504 | 14 | 231 | 8.0 | 19.3 | 0.00 | 0.00 | 0.00 | 45 | 1007.3 |
| 20260509055004 | 14 | 240 | 9.7 | 19.3 | 0.00 | 0.00 | 0.00 | 44 | 1007.3 |
| 20260509054504 | 15 | 265 | 12.9 | 22.5 | 0.00 | 0.00 | 0.00 | 42 | 1007.3 |
| 20260509054004 | 15 | 275 | 11.3 | 22.5 | 0.00 | 0.00 | 0.00 | 42 | 1007.3 |
| 20260509053505 | 14 | 281 | 16.1 | 22.5 | 0.00 | 0.00 | 0.00 | 41 | 1007.2 |
| 20260509053004 | 15 | 293 | 14.5 | 29.0 | 0.00 | 0.00 | 0.00 | 42 | 1007.2 |
| 20260509052504 | 15 | 300 | 20.9 | 29.0 | 0.00 | 0.00 | 0.00 | 42 | 1007.1 |
| 20260509052005 | 15 | 315 | 16.1 | 27.4 | 0.00 | 0.00 | 0.00 | 42 | 1007.1 |
| 20260509051504 | 15 | 298 | 20.9 | 27.4 | 0.00 | 0.00 | 0.00 | 42 | 1006.9 |
| 20260509051005 | 14 | 281 | 19.3 | 27.4 | 0.00 | 0.00 | 0.00 | 45 | 1007.0 |
| 20260509050005 | 14 | 277 | 17.7 | 22.5 | 0.00 | 0.00 | 0.00 | 45 | 1007.0 |
| 20260509045504 | 14 | 278 | 12.9 | 19.3 | 0.00 | 0.00 | 0.00 | 46 | 1007.1 |
| 20260509044504 | 14 | 263 | 14.5 | 27.4 | 0.00 | 0.00 | 0.00 | 45 | 1007.2 |
| 20260509044004 | 15 | 274 | 17.7 | 27.4 | 0.00 | 0.00 | 0.00 | 44 | 1007.2 |
| 20260509043504 | 15 | 274 | 16.1 | 27.4 | 0.00 | 0.00 | 0.00 | 45 | 1007.2 |
| 20260509043005 | 15 | 259 | 14.5 | 29.0 | 0.00 | 0.00 | 0.00 | 45 | 1007.2 |
| 20260509042504 | 15 | 257 | 20.9 | 29.0 | 0.00 | 0.00 | 0.00 | 45 | 1007.3 |
| 20260509042005 | 15 | 276 | 16.1 | 24.1 | 0.00 | 0.00 | 0.00 | 45 | 1007.3 |
| 20260509041504 | 15 | 271 | 16.1 | 25.7 | 0.00 | 0.00 | 0.00 | 45 | 1007.3 |
| 20260509041005 | 15 | 270 | 17.7 | 25.7 | 0.00 | 0.00 | 0.00 | 45 | 1007.3 |
| 20260509035504 | 15 | 271 | 12.9 | 20.9 | 0.00 | 0.00 | 0.00 | 43 | 1007.2 |
| 20260509035005 | 15 | 274 | 12.9 | 20.9 | 0.00 | 0.00 | 0.00 | 42 | 1007.1 |
| 20260509034504 | 15 | 259 | 14.5 | 22.5 | 0.00 | 0.00 | 0.00 | 42 | 1007.0 |
| 20260509034005 | 15 | 265 | 11.3 | 22.5 | 0.00 | 0.00 | 0.00 | 41 | 1007.0 |
| 20260509033005 | 16 | 288 | 14.5 | 27.4 | 0.00 | 0.00 | 0.00 | 39 | 1007.1 |
| 20260509032005 | 16 | 295 | 16.1 | 27.4 | 0.00 | 0.00 | 0.00 | 38 | 1006.8 |
| 20260509031504 | 16 | 293 | 17.7 | 37.0 | 0.00 | 0.00 | 0.00 | 36 | 1006.8 |
| 20260509031004 | 17 | 288 | 20.9 | 37.0 | 0.00 | 0.00 | 0.00 | 34 | 1006.8 |
| 20260509030004 | 17 | 285 | 20.9 | 32.2 | 0.00 | 0.00 | 0.00 | 34 | 1006.5 |
| 20260509025504 | 17 | 257 | 11.3 | 27.4 | 0.00 | 0.00 | 0.00 | 33 | 1006.3 |
| 20260509025005 | 17 | 277 | 14.5 | 25.7 | 0.00 | 0.00 | 0.00 | 33 | 1006.2 |
| 20260509024504 | 16 | 281 | 17.7 | 25.7 | 0.00 | 0.00 | 0.00 | 33 | 1006.2 |
| 20260509024005 | 16 | 266 | 14.5 | 20.9 | 0.00 | 0.00 | 0.00 | 36 | 1006.2 |
| 20260509023504 | 16 | 270 | 14.5 | 20.9 | 0.00 | 0.00 | 0.00 | 35 | 1006.1 |
| 20260509023004 | 16 | 266 | 12.9 | 19.3 | 0.00 | 0.00 | 0.00 | 36 | 1006.0 |
| 20260509022504 | 16 | 254 | 14.5 | 19.3 | 0.00 | 0.00 | 0.00 | 36 | 1005.8 |
| 20260509021504 | 17 | 261 | 12.9 | 19.3 | 0.00 | 0.00 | 0.00 | 34 | 1005.7 |
| 20260509021004 | 17 | 272 | 9.7 | 14.5 | 0.00 | 0.00 | 0.00 | 34 | 1005.7 |
| 20260509020004 | 17 | 278 | 9.7 | 19.3 | 0.00 | 0.00 | 0.00 | 33 | 1005.7 |
| 20260509015504 | 17 | 303 | 11.3 | 19.3 | 0.00 | 0.00 | 0.00 | 32 | 1005.7 |
| 20260509015004 | 17 | 283 | 11.3 | 16.1 | 0.00 | 0.00 | 0.00 | 32 | 1005.7 |
| 20260509014504 | 17 | 288 | 9.7 | 16.1 | 0.00 | 0.00 | 0.00 | 32 | 1005.7 |
| 20260509014004 | 17 | 289 | 9.7 | 19.3 | 0.00 | 0.03 | 0.00 | 32 | 1005.7 |
| 20260509013504 | 17 | 282 | 9.7 | 19.3 | 0.00 | 0.03 | 0.00 | 31 | 1005.8 |
| 20260509013004 | 17 | 281 | 12.9 | 19.3 | 0.00 | 0.03 | 0.00 | 31 | 1005.8 |
| 20260509012004 | 18 | 294 | 12.9 | 19.3 | 0.00 | 0.03 | 0.00 | 31 | 1005.8 |
| 20260509011505 | 18 | 290 | 11.3 | 16.1 | 0.00 | 0.03 | 0.00 | 30 | 1005.8 |
| 20260509011004 | 18 | 296 | 11.3 | 19.3 | 0.00 | 0.03 | 0.00 | 31 | 1005.8 |
| 20260509005504 | 18 | 282 | 11.3 | 19.3 | 0.00 | 0.03 | 0.00 | 30 | 1005.9 |
| 20260509005004 | 18 | 305 | 11.3 | 22.5 | 0.00 | 0.03 | 0.00 | 30 | 1005.9 |
| 20260509004504 | 18 | 297 | 11.3 | 22.5 | 0.00 | 0.03 | 0.00 | 30 | 1006.0 |
| 20260509004004 | 18 | 283 | 16.1 | 20.9 | 0.00 | 0.03 | 0.00 | 29 | 1006.1 |
| 20260509003004 | 18 | 286 | 11.3 | 20.9 | 0.00 | 0.03 | 0.00 | 29 | 1006.2 |
| 20260509002505 | 18 | 278 | 11.3 | 22.5 | 0.00 | 0.03 | 0.00 | 30 | 1006.2 |
| 20260509002004 | 18 | 306 | 14.5 | 25.7 | 0.00 | 0.03 | 0.00 | 29 | 1006.3 |
| 20260509001504 | 18 | 298 | 17.7 | 25.7 | 0.00 | 0.05 | 0.00 | 28 | 1006.3 |
| 20260509001004 | 18 | 298 | 16.1 | 25.7 | 0.00 | 0.05 | 0.00 | 29 | 1006.3 |
| 20260509000004 | 19 | 283 | 19.3 | 29.0 | 0.00 | 0.05 | 0.00 | 28 | 1006.4 |
| 20260508235005 | 19 | 296 | 16.1 | 27.4 | 0.00 | 0.05 | 0.00 | 28 | 1006.4 |
| 20260508234504 | 19 | 290 | 20.9 | 27.4 | 0.00 | 0.05 | 0.00 | 28 | 1006.4 |
| 20260508234005 | 19 | 311 | 19.3 | 32.2 | 0.00 | 0.05 | 0.00 | 27 | 1006.4 |
| 20260508233005 | 20 | 286 | 24.1 | 32.2 | 0.00 | 0.05 | 0.00 | 26 | 1006.4 |
| 20260508232505 | 20 | 297 | 14.5 | 29.0 | 0.00 | 0.05 | 0.00 | 26 | 1006.4 |
| 20260508232005 | 20 | 291 | 17.7 | 32.2 | 0.00 | 0.05 | 0.00 | 25 | 1006.4 |
| 20260508231505 | 20 | 282 | 22.5 | 37.0 | 0.00 | 0.05 | 0.00 | 24 | 1006.4 |
| 20260508231005 | 20 | 281 | 24.1 | 37.0 | 0.00 | 0.05 | 0.00 | 23 | 1006.4 |
| 20260508230005 | 20 | 281 | 30.6 | 40.2 | 0.00 | 0.05 | 0.00 | 21 | 1006.5 |
| 20260508225505 | 21 | 293 | 24.1 | 38.6 | 0.00 | 0.05 | 0.00 | 21 | 1006.4 |
| 20260508225005 | 21 | 300 | 25.7 | 40.2 | 0.00 | 0.05 | 0.00 | 22 | 1006.4 |
| 20260508224505 | 21 | 290 | 25.7 | 40.2 | 0.00 | 0.05 | 0.00 | 22 | 1006.4 |
| 20260508224005 | 21 | 286 | 22.5 | 46.7 | 0.00 | 0.05 | 0.00 | 20 | 1006.5 |
| 20260508223505 | 21 | 307 | 27.4 | 46.7 | 0.00 | 0.05 | 0.00 | 20 | 1006.6 |
| 20260508223005 | 21 | 288 | 25.7 | 40.2 | 0.00 | 0.05 | 0.00 | 20 | 1006.6 |
| 20260508222505 | 21 | 290 | 20.9 | 35.4 | 0.00 | 0.05 | 0.00 | 21 | 1006.7 |
| 20260508222005 | 21 | 291 | 19.3 | 35.4 | 0.00 | 0.05 | 0.00 | 21 | 1006.8 |
| 20260508221505 | 21 | 297 | 22.5 | 33.8 | 0.00 | 0.05 | 0.00 | 21 | 1006.7 |
| 20260508221006 | 21 | 302 | 25.7 | 33.8 | 0.00 | 0.05 | 0.00 | 20 | 1006.8 |
| 20260508215005 | 21 | 270 | 20.9 | 32.2 | 0.00 | 0.05 | 0.00 | 23 | 1006.9 |
| 20260508214505 | 20 | 269 | 19.3 | 29.0 | 0.00 | 0.05 | 0.00 | 24 | 1007.1 |
| 20260508213505 | 21 | 315 | 20.9 | 32.2 | 0.00 | 0.05 | 0.00 | 25 | 1007.1 |
| 20260508213005 | 20 | 301 | 22.5 | 32.2 | 0.00 | 0.05 | 0.00 | 25 | 1007.2 |
| 20260508212005 | 20 | 280 | 20.9 | 29.0 | 0.00 | 0.05 | 0.00 | 24 | 1007.4 |
| 20260508211505 | 20 | 297 | 17.7 | 32.2 | 0.00 | 0.05 | 0.00 | 26 | 1007.3 |
| 20260508211005 | 20 | 264 | 16.1 | 32.2 | 0.00 | 0.05 | 0.00 | 24 | 1007.4 |
| 20260508210004 | 20 | 276 | 19.3 | 29.0 | 0.00 | 0.05 | 0.00 | 25 | 1007.6 |
| 20260508205505 | 20 | 296 | 22.5 | 27.4 | 0.00 | 0.05 | 0.00 | 24 | 1007.7 |
| 20260508205005 | 20 | 276 | 17.7 | 24.1 | 0.00 | 0.05 | 0.00 | 31 | 1007.8 |
| 20260508204505 | 19 | 256 | 12.9 | 25.7 | 0.00 | 0.05 | 0.00 | 31 | 1007.9 |
| 20260508203505 | 19 | 294 | 19.3 | 29.0 | 0.00 | 0.05 | 0.00 | 31 | 1008.1 |
| 20260508203005 | 18 | 251 | 16.1 | 32.2 | 0.00 | 0.05 | 0.00 | 33 | 1008.1 |
| 20260508202505 | 18 | 237 | 16.1 | 32.2 | 0.00 | 0.05 | 0.00 | 32 | 1008.2 |
| 20260508202005 | 18 | 306 | 20.9 | 29.0 | 0.00 | 0.05 | 0.00 | 28 | 1008.2 |
| 20260508201505 | 18 | 273 | 11.3 | 32.2 | 0.00 | 0.05 | 0.00 | 31 | 1008.3 |
| 20260508201006 | 18 | 238 | 14.5 | 32.2 | 0.00 | 0.05 | 0.00 | 31 | 1008.4 |
| 20260508200005 | 18 | 264 | 22.5 | 33.8 | 0.00 | 0.05 | 0.00 | 33 | 1008.3 |
| 20260508195505 | 17 | 253 | 22.5 | 35.4 | 0.00 | 0.05 | 0.00 | 32 | 1008.3 |
| 20260508195005 | 17 | 268 | 19.3 | 35.4 | 0.00 | 0.05 | 0.00 | 33 | 1008.3 |
| 20260508194505 | 17 | 279 | 25.7 | 33.8 | 0.00 | 0.05 | 0.00 | 34 | 1008.4 |
| 20260508193505 | 18 | 276 | 16.1 | 32.2 | 0.00 | 0.05 | 0.00 | 37 | 1008.4 |
| 20260508193006 | 18 | 271 | 24.1 | 32.2 | 0.00 | 0.05 | 0.00 | 34 | 1008.5 |
| 20260508192505 | 18 | 282 | 20.9 | 29.0 | 0.00 | 0.05 | 0.00 | 35 | 1008.5 |
| 20260508191505 | 18 | 299 | 19.3 | 32.2 | 0.00 | 0.05 | 0.00 | 37 | 1008.6 |
| 20260508191005 | 18 | 256 | 20.9 | 32.2 | 0.00 | 0.05 | 0.00 | 38 | 1008.6 |
| 20260508190005 | 17 | 281 | 16.1 | 27.4 | 0.00 | 0.05 | 0.00 | 38 | 1008.7 |
| 20260508185505 | 17 | 277 | 17.7 | 32.2 | 0.00 | 0.05 | 0.00 | 38 | 1008.8 |
| 20260508185005 | 17 | 275 | 24.1 | 32.2 | 0.00 | 0.05 | 0.00 | 37 | 1008.9 |
| 20260508184005 | 17 | 261 | 20.9 | 38.6 | 0.00 | 0.05 | 0.00 | 37 | 1008.9 |
| 20260508183005 | 17 | 286 | 24.1 | 37.0 | 0.00 | 0.05 | 0.00 | 41 | 1009.1 |
| 20260508182505 | 17 | 286 | 22.5 | 33.8 | 0.00 | 0.05 | 0.00 | 39 | 1009.1 |
| 20260508182005 | 17 | 277 | 19.3 | 33.8 | 0.00 | 0.05 | 0.00 | 42 | 1009.2 |
| 20260508181505 | 17 | 286 | 19.3 | 27.4 | 0.00 | 0.05 | 0.00 | 42 | 1009.2 |
| 20260508181005 | 17 | 282 | 20.9 | 29.0 | 0.00 | 0.05 | 0.00 | 41 | 1009.3 |
| 20260508180005 | 17 | 271 | 20.9 | 40.2 | 0.00 | 0.05 | 0.00 | 42 | 1009.4 |
| 20260508175505 | 17 | 276 | 20.9 | 40.2 | 0.00 | 0.05 | 0.00 | 41 | 1009.6 |
| 20260508174505 | 17 | 284 | 22.5 | 38.6 | 0.00 | 0.05 | 0.00 | 42 | 1009.8 |
| 20260508173505 | 17 | 272 | 20.9 | 32.2 | 0.00 | 0.05 | 0.00 | 42 | 1010.0 |
| 20260508173005 | 17 | 282 | 22.5 | 32.2 | 0.00 | 0.05 | 0.00 | 40 | 1010.1 |
| 20260508172505 | 17 | 289 | 25.7 | 32.2 | 0.00 | 0.05 | 0.00 | 42 | 1010.1 |
| 20260508172005 | 17 | 279 | 24.1 | 35.4 | 0.00 | 0.05 | 0.00 | 43 | 1010.2 |
| 20260508171504 | 17 | 286 | 19.3 | 35.4 | 0.00 | 0.05 | 0.00 | 45 | 1010.2 |
| 20260508171005 | 17 | 285 | 20.9 | 35.4 | 0.00 | 0.05 | 0.00 | 44 | 1010.1 |
| 20260508170005 | 16 | 279 | 20.9 | 32.2 | 0.00 | 0.05 | 0.00 | 45 | 1010.1 |
| 20260508165505 | 16 | 285 | 20.9 | 27.4 | 0.00 | 0.05 | 0.00 | 45 | 1010.2 |
| 20260508164505 | 16 | 257 | 20.9 | 29.0 | 0.00 | 0.05 | 0.00 | 48 | 1010.3 |
| 20260508164005 | 16 | 255 | 19.3 | 27.4 | 0.00 | 0.05 | 0.00 | 49 | 1010.3 |
| 20260508163505 | 16 | 258 | 19.3 | 27.4 | 0.00 | 0.05 | 0.00 | 50 | 1010.4 |
| 20260508163005 | 15 | 286 | 19.3 | 25.7 | 0.00 | 0.05 | 0.00 | 51 | 1010.3 |
| 20260508162504 | 15 | 272 | 20.9 | 29.0 | 0.00 | 0.05 | 0.00 | 52 | 1010.4 |
| 20260508161505 | 15 | 263 | 17.7 | 32.2 | 0.00 | 0.05 | 0.00 | 53 | 1010.4 |
| 20260508161005 | 15 | 252 | 22.5 | 32.2 | 0.00 | 0.05 | 0.00 | 52 | 1010.3 |
| 20260508160005 | 15 | 261 | 19.3 | 27.4 | 0.00 | 0.05 | 0.00 | 55 | 1010.4 |
| 20260508155505 | 15 | 250 | 17.7 | 25.7 | 0.00 | 0.05 | 0.00 | 55 | 1010.4 |
| 20260508155005 | 14 | 268 | 19.3 | 25.7 | 0.00 | 0.05 | 0.00 | 55 | 1010.5 |
| 20260508154505 | 14 | 270 | 16.1 | 22.5 | 0.00 | 0.05 | 0.00 | 55 | 1010.6 |
| 20260508153505 | 13 | 245 | 8.0 | 14.5 | 0.00 | 0.05 | 0.00 | 57 | 1010.7 |
| 20260508153004 | 13 | 262 | 6.4 | 12.9 | 0.00 | 0.05 | 0.00 | 58 | 1010.8 |
| 20260508152504 | 13 | 241 | 4.8 | 12.9 | 0.00 | 0.05 | 0.00 | 59 | 1010.9 |
| 20260508152004 | 13 | 254 | 8.0 | 12.9 | 0.00 | 0.05 | 0.00 | 62 | 1010.9 |
| 20260508151505 | 12 | 265 | 4.8 | 14.5 | 0.00 | 0.05 | 0.00 | 61 | 1011.0 |
| 20260508151004 | 12 | 267 | 9.7 | 19.3 | 0.00 | 0.05 | 0.00 | 61 | 1011.1 |
| 20260508150005 | 12 | 268 | 14.5 | 19.3 | 0.00 | 0.05 | 0.00 | 61 | 1011.2 |
| 20260508145505 | 12 | 254 | 14.5 | 19.3 | 0.00 | 0.05 | 0.00 | 59 | 1011.3 |
| 20260508145005 | 11 | 240 | 9.7 | 14.5 | 0.00 | 0.05 | 0.00 | 60 | 1011.4 |
| 20260508144504 | 11 | 252 | 9.7 | 14.5 | 0.00 | 0.05 | 0.00 | 62 | 1011.4 |
| 20260508144005 | 11 | 271 | 9.7 | 16.1 | 0.00 | 0.05 | 0.00 | 64 | 1011.4 |
| 20260508143505 | 11 | 265 | 11.3 | 19.3 | 0.00 | 0.05 | 0.00 | 64 | 1011.4 |
| 20260508142505 | 11 | 251 | 11.3 | 19.3 | 0.00 | 0.05 | 0.00 | 64 | 1011.5 |
| 20260508142005 | 10 | 241 | 11.3 | 16.1 | 0.00 | 0.05 | 0.00 | 65 | 1011.5 |
| 20260508141005 | 9 | 230 | 9.7 | 14.5 | 0.00 | 0.05 | 0.00 | 69 | 1011.6 |
| 20260508135508 | 9 | 212 | 9.7 | 16.1 | 0.00 | 0.05 | 0.00 | 68 | 1011.6 |
| 20260508135005 | 9 | 227 | 11.3 | 19.3 | 0.00 | 0.05 | 0.00 | 68 | 1011.7 |
| 20260508134505 | 9 | 233 | 9.7 | 19.3 | 0.00 | 0.05 | 0.00 | 68 | 1011.6 |
| 20260508134005 | 8 | 232 | 11.3 | 16.1 | 0.00 | 0.05 | 0.00 | 69 | 1011.7 |
| 20260508133005 | 8 | 218 | 9.7 | 14.5 | 0.00 | 0.05 | 0.00 | 69 | 1011.6 |
| 20260508132504 | 8 | 225 | 9.7 | 14.5 | 0.00 | 0.05 | 0.00 | 69 | 1011.6 |
| 20260508132005 | 9 | 213 | 9.7 | 14.5 | 0.00 | 0.05 | 0.00 | 68 | 1011.7 |
| 20260508131005 | 9 | 231 | 8.0 | 14.5 | 0.00 | 0.05 | 0.00 | 67 | 1011.6 |
| 20260508130005 | 10 | 228 | 9.7 | 19.3 | 0.00 | 0.05 | 0.00 | 67 | 1011.5 |
| 20260508125505 | 9 | 225 | 11.3 | 19.3 | 0.00 | 0.05 | 0.00 | 67 | 1011.4 |
| 20260508124504 | 8 | 228 | 11.3 | 19.3 | 0.00 | 0.05 | 0.00 | 69 | 1011.3 |
| 20260508124004 | 8 | 226 | 9.7 | 16.1 | 0.00 | 0.05 | 0.00 | 70 | 1011.3 |
| 20260508123505 | 8 | 224 | 11.3 | 19.3 | 0.00 | 0.05 | 0.00 | 70 | 1011.3 |
| 20260508122505 | 8 | 222 | 11.3 | 19.3 | 0.00 | 0.05 | 0.00 | 71 | 1011.2 |
| 20260508122005 | 8 | 200 | 14.5 | 19.3 | 0.00 | 0.05 | 0.00 | 72 | 1011.1 |
| 20260508121505 | 8 | 199 | 11.3 | 22.5 | 0.00 | 0.05 | 0.00 | 72 | 1011.1 |
| 20260508120005 | 8 | 212 | 9.7 | 19.3 | 0.00 | 0.05 | 0.00 | 71 | 1011.2 |
| 20260508115504 | 8 | 222 | 9.7 | 20.9 | 0.00 | 0.05 | 0.00 | 71 | 1011.2 |
| 20260508115005 | 8 | 204 | 14.5 | 20.9 | 0.00 | 0.05 | 0.00 | 72 | 1011.1 |
| 20260508114504 | 8 | 208 | 11.3 | 19.3 | 0.00 | 0.05 | 0.00 | 73 | 1011.1 |
| 20260508114005 | 8 | 206 | 11.3 | 20.9 | 0.00 | 0.05 | 0.00 | 74 | 1011.0 |
| 20260508113504 | 8 | 211 | 12.9 | 20.9 | 0.00 | 0.05 | 0.00 | 74 | 1011.1 |
| 20260508113005 | 8 | 204 | 16.1 | 20.9 | 0.00 | 0.05 | 0.00 | 74 | 1011.0 |
| 20260508112504 | 8 | 206 | 12.9 | 20.9 | 0.00 | 0.05 | 0.00 | 74 | 1011.1 |
| 20260508112004 | 8 | 205 | 12.9 | 20.9 | 0.00 | 0.05 | 0.00 | 74 | 1011.0 |
| 20260508111505 | 8 | 208 | 11.3 | 20.9 | 0.00 | 0.05 | 0.00 | 74 | 1011.1 |
| 20260508110004 | 8 | 226 | 8.0 | 14.5 | 0.00 | 0.05 | 0.00 | 74 | 1011.1 |
| 20260508105504 | 8 | 237 | 9.7 | 14.5 | 0.00 | 0.05 | 0.00 | 73 | 1011.2 |
| 20260508104005 | 8 | 244 | 11.3 | 19.3 | 0.00 | 0.05 | 0.00 | 73 | 1011.2 |
| 20260508103505 | 8 | 236 | 12.9 | 20.9 | 0.00 | 0.05 | 0.00 | 72 | 1011.2 |
| 20260508103005 | 8 | 241 | 14.5 | 20.9 | 0.00 | 0.05 | 0.00 | 73 | 1011.2 |
| 20260508102504 | 8 | 233 | 16.1 | 20.9 | 0.00 | 0.05 | 0.00 | 73 | 1011.1 |
| 20260508102005 | 7 | 233 | 12.9 | 19.3 | 0.00 | 0.05 | 0.00 | 74 | 1011.0 |
| 20260508101504 | 7 | 233 | 12.9 | 19.3 | 0.00 | 0.05 | 0.00 | 75 | 1010.9 |
| 20260508101005 | 7 | 227 | 11.3 | 19.3 | 0.00 | 0.05 | 0.00 | 76 | 1010.9 |
| 20260508100004 | 6 | 233 | 11.3 | 14.5 | 0.00 | 0.05 | 0.00 | 78 | 1010.9 |
| 20260508095504 | 7 | 234 | 8.0 | 11.3 | 0.00 | 0.05 | 0.00 | 78 | 1010.9 |
| 20260508095005 | 7 | 233 | 8.0 | 14.5 | 0.00 | 0.05 | 0.00 | 77 | 1010.9 |
| 20260508094505 | 7 | 231 | 8.0 | 14.5 | 0.00 | 0.05 | 0.00 | 76 | 1010.9 |
| 20260508094005 | 7 | 242 | 9.7 | 16.1 | 0.00 | 0.05 | 0.00 | 75 | 1010.9 |